{"data":{"norad_id":47808,"epoch":"2026-05-25T00:10:46.106112Z","epoch_age_seconds":74301,"freshness":"FRESH","line1":"1 47808U 21018X   26145.00747808 -.00001465  00000+0 -35480-4 0  9992","line2":"2 47808  53.1579 247.6906 0000379  77.2680 282.8364 15.31698983288477","mean_motion":15.31698983,"eccentricity":3.79e-5,"inclination_deg":53.1579,"raan_deg":247.6906,"arg_perigee_deg":77.268,"mean_anomaly_deg":282.8364,"bstar":-3.548e-5,"rev_number":28847,"period_min":94.013250382892,"perigee_km":470.48345429839,"apogee_km":471.00259940442,"semimajor_km":6848.8800268514,"source":"CELESTRAK","updated_at":"2026-05-25T13:38:16.601622Z"}}